Home > Weather > Mount Isa > Past weeks

Flag for Australia Weather for the Past 2 Weeks in Mount Isa, Queensland, Australia

Now
93 °F

Sunny.


Feels Like: 93 °F
Forecast: 75 / 99 °F
Wind: 10 mph from East

Location: Mount Isa Amo

Current Time: Feb 11, 2016 at 1:03:07 PM

Latest Report: Feb 11, 2016 at 12:00 PM


Visibility: 10 mi

Pressure: 29.83 "Hg

Humidity: 34%

Dew point: 61 °F

Location of Mount IsaLocation

Historic Weather in Mount Isa — Graph

°F

Mount Isa Temperature Yesterday

Maximum temperature yesterday: 93 °F (at 1:30 PM)
Minimum temperature yesterday: 73 °F (at 3:04 PM)
Average temperature yesterday: 81 °F

High & Low Weather Summary for the Past Weeks

 TemperatureHumidityPressure
High108 °F (Jan 27, 2:00 PM)94% (Jan 30, 1:00 PM)29.86 "Hg (Jan 30, 1:00 PM)
Low64 °F (Feb 6, 6:30 AM)14% (Jan 27, 3:30 PM)29.62 "Hg (Feb 2, 5:30 PM)
Average86 °F56%29.76 "Hg
* Reported Jan 27 12:00 Noon — Feb 11 12:00 Noon, Mount Isa, Weather by CustomWeather, © 2016

Note: Actual official high and low records may vary slightly from our data, if they occured in-between our weather recording intervals... More about our weather records

Advertising

Mount Isa Weather History for the Previous 24 Hours

 ConditionsComfort  
Time TempWeatherWind HumidityBarometerVisibility
12:00 PM
Thu, Feb 11
93 °FSunny.10 mph34%29.83 "Hg10 mi
11:30 AM91 °FSunny.13 mph41%29.83 "HgN/A
11:00 AM91 °FSunny.12 mph41%29.86 "Hg10 mi
10:30 AM90 °FSunny.9 mph46%29.86 "HgN/A
10:00 AM88 °FSunny.9 mph52%29.86 "Hg10 mi
9:30 AM88 °FSunny.8 mph49%29.86 "HgN/A
9:00 AM86 °FSunny.7 mph52%29.86 "Hg10 mi
8:30 AM86 °FSunny.6 mph52%29.86 "HgN/A
8:00 AM82 °FSunny.6 mph58%29.86 "Hg10 mi
7:30 AM77 °FSunny.1 mph83%29.83 "HgN/A
7:00 AM75 °FSunny.6 mph94%29.83 "Hg10 mi
6:30 AM75 °FSunny.No wind89%29.80 "HgN/A
6:00 AM75 °FSunny.No wind94%29.80 "Hg10 mi
5:30 AM75 °FSunny.3 mph94%29.80 "HgN/A
5:00 AM75 °FClear.No wind89%29.77 "HgN/A
4:00 AM75 °FClear.3 mph94%29.77 "HgN/A
3:30 AM75 °FClear.3 mph94%29.77 "HgN/A
3:00 AM75 °FClear.6 mph94%29.77 "HgN/A
2:30 AM75 °FPassing clouds.No wind94%29.80 "HgN/A
2:00 AM75 °FPassing clouds.No wind94%29.80 "HgN/A
1:30 AM75 °FPassing clouds.5 mph94%29.80 "HgN/A
1:00 AM77 °FClear.5 mph89%29.80 "HgN/A
12:30 AM77 °FClear.6 mph89%29.80 "HgN/A
12:00 AM75 °FClear.6 mph94%29.80 "HgN/A
11:30 PM
Wed, Feb 10
77 °FClear.3 mph89%29.80 "HgN/A
11:00 PM77 °FClear.5 mph89%29.80 "HgN/A
10:30 PM77 °FClear.3 mph89%29.80 "HgN/A
10:00 PM79 °FClear.5 mph84%29.80 "HgN/A
9:30 PM79 °FClear.1 mph79%29.80 "HgN/A
9:00 PM79 °FClear.3 mph74%29.80 "HgN/A
8:30 PM81 °FClear.5 mph70%29.77 "HgN/A
8:00 PM81 °FClear.6 mph74%29.77 "HgN/A
7:30 PM82 °FClear.8 mph70%29.77 "HgN/A
7:00 PM84 °FPassing clouds.8 mph62%29.74 "HgN/A
6:30 PM86 °FOvercast.5 mph59%29.74 "HgN/A
6:00 PM86 °FOvercast.5 mph59%29.74 "HgN/A
5:30 PM84 °FPartly sunny.12 mph62%29.74 "HgN/A
5:00 PM84 °FOvercast.8 mph55%29.74 "HgN/A
4:30 PM86 °FOvercast.7 mph55%29.74 "HgN/A
4:00 PM84 °FPartly sunny.16 mph62%29.74 "HgN/A
3:30 PM77 °FSprinkles. More clouds than sun.12 mph79%29.74 "HgN/A
3:04 PM73 °FLots of rain. Cloudy.26 mph94%29.77 "Hg3 mi
2:00 PM93 °FScattered showers. Scattered clouds.9 mph44%29.74 "HgN/A
1:30 PM93 °FScattered clouds.9 mph44%29.77 "HgN/A
1:00 PM91 °FScattered clouds.8 mph49%29.77 "HgN/A
Weather by CustomWeather, © 2016

See weather overviewHow to use our weather pages